Home > Weather > Mabalacat > Past weeks

Flag for Philippines Weather for the Past 2 Weeks in Mabalacat, Philippines

Now
75 °F

Sprinkles. Mostly cloudy.


Feels Like: 75 °F
Forecast: 74 / 84 °F
Wind: 5 mph from North

Location: Clarkfield Pampanga International Airport

Current Time: Feb 10, 2016 at 6:50:00 AM

Latest Report: Feb 10, 2016 at 6:00 AM


Visibility: N/A

Pressure: 29.98 "Hg

Humidity: 83%

Dew point: 70 °F

Location of MabalacatLocation

Historic Weather in Mabalacat — Graph

°F

Mabalacat Temperature Yesterday

Maximum temperature yesterday: 86 °F (at 2:00 PM)
Minimum temperature yesterday: 68 °F (at 5:00 AM)
Average temperature yesterday: 77 °F

High & Low Weather Summary for the Past Weeks

 TemperatureHumidityPressure
High90 °F (Jan 30, 3:00 PM)94% (Jan 29, 10:00 PM)30.18 "Hg (Jan 29, 10:00 PM)
Low68 °F (Feb 8, 6:00 AM)55% (Jan 31, 2:00 PM)29.80 "Hg (Feb 5, 3:00 PM)
Average79 °F78%29.98 "Hg
* Reported Jan 26 5:00 AM — Feb 10 5:00 AM, Mabalacat, Weather by CustomWeather, © 2016

Note: Actual official high and low records may vary slightly from our data, if they occured in-between our weather recording intervals... More about our weather records

Advertising

Mabalacat Weather History for the Previous 24 Hours

 ConditionsComfort  
Time TempWeatherWind HumidityBarometerVisibility
5:00 AM
Wed, Feb 10
75 °FPassing clouds.7 mph83%29.95 "HgN/A
4:00 AM75 °FPassing clouds.8 mph83%29.95 "HgN/A
3:00 AM75 °FPassing clouds.8 mph83%29.95 "HgN/A
2:00 AM75 °FPassing clouds.7 mph83%29.95 "HgN/A
1:00 AM75 °FPassing clouds.8 mph83%29.98 "HgN/A
12:00 AM75 °FPassing clouds.3 mph83%29.98 "HgN/A
11:00 PM
Tue, Feb 9
75 °FPassing clouds.5 mph83%29.98 "HgN/A
10:00 PM75 °FPassing clouds.5 mph78%30.01 "HgN/A
9:00 PM77 °FPassing clouds.5 mph79%30.01 "HgN/A
8:00 PM79 °FPassing clouds.2 mph74%30.01 "HgN/A
7:00 PM79 °FPassing clouds.6 mph79%29.98 "HgN/A
6:00 PM81 °FPartly cloudy.8 mph74%29.98 "HgN/A
5:00 PM82 °FBroken clouds.9 mph70%29.95 "HgN/A
4:00 PM84 °FBroken clouds.10 mph70%29.95 "HgN/A
3:00 PM84 °FBroken clouds.6 mph70%29.95 "HgN/A
2:00 PM86 °FPartly sunny.6 mph66%29.95 "HgN/A
1:00 PM84 °FBroken clouds.8 mph66%29.98 "HgN/A
12:00 PM82 °FBroken clouds.5 mph66%30.01 "HgN/A
11:00 AM81 °FBroken clouds.5 mph70%30.04 "HgN/A
10:00 AM79 °FPartly sunny.7 mph79%30.07 "HgN/A
9:00 AM75 °FScattered clouds.7 mph69%30.07 "HgN/A
8:00 AM73 °FScattered clouds.7 mph78%30.07 "HgN/A
7:00 AM70 °FScattered clouds.7 mph83%30.04 "HgN/A
6:00 AM68 °FPassing clouds.9 mph88%30.04 "HgN/A
Weather by CustomWeather, © 2016

See weather overviewHow to use our weather pages